Regional Weather Roundup
Issued by NWS San Diego, CA

Home | Current Version | Previous Version | Text Only | Print | Product List | Glossary On
Versions: 1 2 3 4 5 6 7 8 9 10 11 12 13 14 15 16 17 18 19 20 21 22 23 24 25 26 27 28 29 30 31 32 33 34 35 36 37 38 39 40 41 42 43 44 45 46 47 48 49 50
000
ASUS46 KSGX 230110
RWRSGX

SAN DIEGO HOURLY WEATHER ROUNDUP
NATIONAL WEATHER SERVICE SAN DIEGO CA
600 PM PDT WED OCT 22 2014

NOTE: "FAIR" INDICATES FEW OR NO CLOUDS BELOW 12,000 FEET WITH NO
SIGNIFICANT WEATHER AND/OR OBSTRUCTIONS TO VISIBILITY.

CAZ042-043-060-061-PZZ750-775-230200-

GREATER SAN DIEGO AREA

CITY           SKY/WX    TMP DP  RH WIND       PRES   REMARKS
LINDBERGH FLD  MOCLDY    72  63  73 NW7       29.91S
POINT LOMA       N/A     68  62  82 NW14        N/A
NATIONAL CITY    N/A     75  65  71 CALM      29.91R
CHULA VISTA      N/A     73  66  76 CALM      29.83S
IMPERIAL BEACH PTCLDY    70  64  81 NW7       29.91R
BROWN FIELD    CLEAR     71  62  73 W3        29.91R
MIRAMAR MCAS   PTCLDY    73  58  59 NW5       29.91R
MONTGOMERY FLD CLEAR     75  59  57 NW6       29.91R

$$

NORTH SAN DIEGO COUNTY

CITY           SKY/WX    TMP DP  RH WIND       PRES   REMARKS
CAMP PENDLETON PTCLDY    72  59  63 S6        29.89R
OCEANSIDE AP   CLEAR     71  63  75 W6        29.89R
OCEANSIDE HBR    N/A     71  66  84 W3        29.92R
CARLSBAD       CLEAR     70  62  76 W3        29.90R
DEL MAR          N/A     69  64  82 CALM      29.93R
FALLBROOK        N/A     74  60  60 CALM      29.89R
ESCONDIDO        N/A     78  56  47 W3        29.92S
SAN MARCOS       N/A     78  59  51 CALM      29.88S
POWAY            N/A     76  59  56 CALM      29.91S

$$

EAST SAN DIEGO COUNTY

CITY           SKY/WX    TMP DP  RH WIND       PRES   REMARKS
RAMONA         CLEAR     74  51  44 W6        29.94R
SANTEE LAKES     N/A     78  59  51 W2        29.90S
LA MESA          N/A     78  61  56 W1        29.84S
JAMUL            N/A     76  55  48 CALM      29.90R
DESCANSO N       N/A     74  46  36 CALM      29.83R
MT. LAGUNA OBS   N/A     65  16  15 CALM      29.74R
CAMPO            N/A     74  43  32 S7        29.96R

$$

ORANGE COUNTY AND THE LOS ANGELES BASIN

CITY           SKY/WX    TMP DP  RH WIND       PRES   REMARKS
JOHN WAYNE AP  MOCLDY    76  61  59 W3        29.89S
LAKE FOREST FR   N/A     76  53  44 CALM      29.80S
SANTA ANA        N/A     76  64  65 CALM      29.85R
HUNTINGTON BCH   N/A     71  67  85 W9        29.91S
LOS ALAMITOS   PTCLDY    76  63  64 S5        29.89R
FULLERTON      PTCLDY    78  58  49 S6        29.88R
LONG BEACH     PTCLDY    75  59  57 NW9       29.89R
L.A. AP        PTCLDY    70  64  81 W13       29.90R
L.A. DOWNTOWN  PTCLDY    74  58  57 W6        29.89R

$$

THE INLAND EMPIRE

CITY           SKY/WX    TMP DP  RH WIND       PRES   REMARKS
CORONA         PTCLDY    80  49  33 W7        29.89R
CHINO          PTCLDY    79  50  36 W9        29.90R
ONTARIO        MOCLDY    82  55  39 SW10      29.90R
SAN BERNARDINO MOCLDY   N/A N/A N/A SW6       29.91R
RIVERSIDE AP   PTCLDY    82  51  34 W8        29.90R
RIV CYN CREST    N/A     82  61  49 NW2       29.87S
MORENO VALLEY    N/A     82  52  34 NW3       29.11R
MARCH ARB      PTCLDY    80  48  32 NW7       29.93R
PERRIS           N/A     84  46  26 NW6       29.89R
MENIFEE          N/A     83  50  31 SW5       29.96R
HEMET EAST       N/A     82  37  19 CALM      29.89S
FRENCH VALLEY  FAIR      79  41  25 SW6       29.93R
TEMECULA         N/A     80  43  26 SW3       29.87R

$$

SAN BERNARDINO AND RIVERSIDE COUNTY MOUNTAINS

CITY           SKY/WX    TMP DP  RH WIND       PRES   REMARKS
BIG BEAR AP    PTCLDY    59  27  29 CALM      30.23R
PINE COVE        N/A     63  20  19 NW1       29.86S

$$

SOUTHERN DESERT INCLUDING THE COACHELLA VALLEY

CITY           SKY/WX    TMP DP  RH WIND       PRES   REMARKS
PALM SPRINGS   PTCLDY    90  36  14 E6        29.89R
THOUSAND PALMS   N/A     87  32  14 SE2       29.84R
PALM DESERT      N/A     88  41  19 CALM        N/A
THERMAL        PTCLDY    83  44  25 SE3       29.83R
BLYTHE         PTCLDY    90  45  21 E5        29.86S
IMPERIAL AP    PTCLDY    88  50  27 W6        29.83S
EL CENTRO NAS  PTCLDY    90  49  24 NW3       29.84R
YUMA AZ        PTCLDY    91  45  20 W3        29.84S
MEXICALI       CLEAR     91  45  19 SE3       29.85

$$

UPPER DESERT

CITY           SKY/WX    TMP DP  RH WIND       PRES   REMARKS
VICTORVILLE AP MOCLDY    75  23  14 CALM      30.03R
HESPERIA         N/A     74  35  23 CALM      30.08S
APPLE VALLEY     N/A     77  28  16 CALM      30.06R
PALMDALE       PTCLDY    78  31  17 NW6       30.01R
LANCASTER      CLEAR     77  30  17 CALM      30.00R
EDWARDS AFB    MOCLDY    79  30  16 CALM      29.98R
DAGGETT        PTCLDY    79  27  14 E5        29.97S
29 PALMS N     PTCLDY    81  36  19 S5        30.03R
NEEDLES        PTCLDY    87  43  21 NE5       29.91R

$$

REGIONAL REPORTS

CITY           SKY/WX    TMP DP  RH WIND       PRES   REMARKS
SANTA BARBARA  PTCLDY    71  61  70 SE6       29.89S
SANDBERG       CLEAR     71  26  18 NE6       30.11S
MT. WILSON       N/A     68  36  30 SW5         N/A
LAS VEGAS NV   FAIR      81  27  14 CALM      29.96R
PHOENIX AZ     PTCLDY    87  49  26 SW3       29.89R
TIJUANA        PTCLDY    73  59  60 W7        29.93S

$$

OFFSHORE ISLANDS

CITY           SKY/WX    TMP DP  RH WIND       PRES   REMARKS
CATALINA ARPT  CLEAR     68  60  75 CALM      29.95R
SAN CLEMENTE I PTCLDY    71  61  70 NW7       29.92S
SAN NICOLAS IS CLEAR    N/A N/A N/A W10       29.92R

$$

MARINE AND OFFSHORE BUOY REPORTS

STATION/POSITION SKY/WX   TEMP    WIND        PRES    SWELL
                          AIR SEA DIR/SP/G            HT/PER/DIR
                          (F)     (DEG/KT/KT) (MB)    (FT/S/D)
TANNER BANKS               67 68  320/ 10/ 14 1012.8R  10/310/13
S CLEMENTE BASIN           70 72  310/  6/  8 1012.5R   7/290/12
SAN NICOLAS IS.               68                N/A     7/300/11
SO. S. ROSA ISLA           66 67  320/ 17/ 19 1012.3F   7/12
W. S. BARBARA CH           65 65  320/ 19/ 25 1011.8F   7/310/13
M. S. BARBARA CH           68 69  240/  8/  8 1012.6
S. MONICA BASIN            69 72  270/ 10/ 12 1012.2S   5/260/ 8
S PEDRO CHANNEL               72                N/A     3/270/13
DANA POINT                    70                N/A     3/280/13
CMP PENDLETON NS              71                N/A     2/230/12
OCEANSIDE OFFSHR              72                N/A     2/250/12
TORREY PINES OTR              72                N/A     3/270/14
LA JOLLA 1                 70 71  340/  2/  4 1012.6R
MISSION BAY BUOY              72                N/A     3/270/14
SAN DIEGO BAY                 75              1012.9S
POINT LOMA SOUTH              72                N/A     5/280/14

$$




USA.gov is the U.S. government's official web portal to all federal, state and local government web resources and services.